Terminal Aerodrome Forecast
Issued by NWS Charleston, WV

Current Version | Previous Version | Text Only | Print | Product List | Glossary Off
Versions: 1 2 3 4 5 6 7 8 9 10 11 12 13 14 15 16 17 18 19 20 21 22 23 24

860
FTUS41 KRLX 240242 AAA
TAFCRW
TAF AMD
KCRW 240242Z 2403/2424 11004KT P6SM OVC035
      TEMPO 2403/2405 BKN030
     FM240500 00000KT P6SM OVC025
     FM241100 00000KT P6SM OVC015
     FM241600 14007KT P6SM SHRA OVC030
     FM242300 14009KT P6SM OVC035=

USA.gov is the U.S. government's official web portal to all federal, state and local government web resources and services.